COSMOS 2539

Last updated on Thu Nov 21 2024 00:02:44 GMT+0000 (Coordinated Universal Time)

1 44457U 19048A 24324.65437307 .00000082 00000+0 00000+0 0 9994 2 44457 0.0126 66.5686 0001011 322.3779 277.8001 1.00269853 19467
UTC large
Height (km)
Speed (km/s)
/
Latitude / Longitude
Inclination (degrees)
Orbital Period (minutes)
Azimuth
Elevation
Range (km)
Doppler Factor

Next 0 passes for location: London (51.5072 / 0.1276)

Sorry there are no passes over London.